{"data":{"norad_id":87706,"intl_designator":"","name":"UNKNOWN","alt_names":[],"object_type":"UNKNOWN","status":"UNKNOWN","operator":null,"country":null,"launch_date":null,"launch_site_code":null,"launch_vehicle":null,"mission":null,"orbit_class":"UNKNOWN","rcs_meters":null,"size_class":null,"mass_kg":null,"dimensions":null,"purposes":[],"wikipedia_slug":null,"has_3d_model":false,"image_url":null,"decayed_at":null,"tle_current":{"epoch":"2026-05-24T00:55:57.770976Z","epoch_age_seconds":158176,"freshness":"FRESH","line1":"1 87706U          26144.03886309  .00002690  00000+0  46517-3 0  9994","line2":"2 87706  98.6734 341.5312 0103826 123.6486  26.9034 14.65795869602288","mean_motion":14.65795869,"eccentricity":0.0103826,"inclination_deg":98.6734,"raan_deg":341.5312,"arg_perigee_deg":123.6486,"mean_anomaly_deg":26.9034,"bstar":0.00046517,"rev_number":60228,"period_min":98.240145879412,"perigee_km":601.29641581734,"apogee_km":747.74627691127,"semimajor_km":7052.6583463643,"source":"CELESTRAK","updated_at":"2026-05-25T13:38:11.677015Z"}}}